This is the latest recevied weather packets stored in our database for station/object W7MB. If no packets are shown the sender has not sent any weather packets the latest 1 day(s).
| Time | Temp. | Humidity | Pressure | Rain* | Wind** | Luminosity | Snow |
|---|---|---|---|---|---|---|---|
| 1778004723 | 23.89° C | 44% | 1012.1 hPa | 0 mm | 1.79 m/s, 171° | - | - |
| 1778004363 | 23.89° C | 44% | 1012.1 hPa | 0 mm | 0.89 m/s, 172° | - | - |
| 1778004004 | 23.33° C | 47% | 1012.1 hPa | 0 mm | 1.34 m/s, 173° | - | - |
| 1778003643 | 23.33° C | 49% | 1012.1 hPa | 0 mm | 0.45 m/s, 177° | - | - |
| 1778003283 | 22.78° C | 49% | 1012.3 hPa | 0 mm | 0 m/s | - | - |
| 1778002923 | 22.22° C | 54% | 1012.3 hPa | 0 mm | 0 m/s | - | - |
| 1778002563 | 22.22° C | 51% | 1012.3 hPa | 0 mm | 0 m/s | - | - |
| 1778002203 | 21.67° C | 56% | 1012.3 hPa | 0 mm | 0 m/s | - | - |
| 1778001843 | 21.11° C | 52% | 1012.4 hPa | 0 mm | 0 m/s | - | - |
| 1778001484 | 20.56° C | 57% | 1012.3 hPa | 0 mm | 0 m/s | - | - |
| 1778001123 | 20° C | 56% | 1012.3 hPa | 0 mm | 0 m/s | - | - |
| 1778000763 | 19.44° C | 63% | 1012.3 hPa | 0 mm | 0 m/s | - | - |
| 1778000403 | 19.44° C | 58% | 1012.3 hPa | 0 mm | 0 m/s | - | - |
| 1778000043 | 18.89° C | 62% | 1012.4 hPa | 0 mm | 0 m/s | - | - |
| 1777999683 | 18.33° C | 63% | 1012.3 hPa | 0 mm | 0 m/s | - | - |
| 1777999323 | 17.78° C | 62% | 1012.3 hPa | 0 mm | 0 m/s | - | - |
| 1777998963 | 17.22° C | 65% | 1012.4 hPa | 0 mm | 0 m/s | - | - |
| 1777998603 | 16.67° C | 64% | 1012.4 hPa | 0 mm | 0 m/s | - | - |
| 1777998243 | 16.67° C | 63% | 1012.4 hPa | 0 mm | 0 m/s | - | - |
| 1777997883 | 16.11° C | 70% | 1012.4 hPa | 0 mm | 0 m/s | - | - |
| 1777997523 | 15.56° C | 68% | 1012.5 hPa | 0 mm | 0 m/s | - | - |
| 1777997163 | 15° C | 72% | 1012.5 hPa | 0 mm | 0 m/s | - | - |
| 1777996804 | 14.44° C | 75% | 1012.5 hPa | 0 mm | 0 m/s | - | - |
| 1777996443 | 13.33° C | 78% | 1012.5 hPa | 0 mm | 0 m/s | - | - |
| 1777996083 | 13.33° C | 81% | 1012.6 hPa | 0 mm | 0 m/s | - | - |
* Rain latest hour (hover to see other rain measurements)
** Current wind speed in m/s (hover to see current wind gust speed)